Total_Precipitation_Accumulation
0.20 0.19 0.19 0.22 0.25 0.28 0.34 0.40 0.45 0.61 0.74 0.82 0.93 1.11 1.29 1.46 1.62 1.74 1.64 1.50 1.45 1.62 1.73 1.66 1.74 1.77 1.65 1.64 1.68 1.75 1.70 1.44 1.31 1.38 1.27 1.00 0.77 0.84 0.84 0.81 0.86 0.92 1.03
0.15 0.11 0.09 0.12 0.15 0.18 0.22 0.27 0.34 0.45 0.58 0.72 0.95 1.16 1.46 1.55 1.64 1.78 1.82 1.76 1.69 1.85 1.88 1.96 2.03 2.06 2.05 2.02 1.90 1.98 2.08 1.82 1.60 1.71 1.99 1.58 1.18 0.85 0.69 0.79 0.83 0.94 1.17
0.11 0.08 0.07 0.07 0.12 0.13 0.14 0.21 0.32 0.46 0.67 0.90 1.22 1.50 1.73 1.81 1.86 1.82 1.88 1.97 2.02 2.08 2.10 2.16 2.22 2.22 2.07 2.07 2.15 2.25 2.58 2.39 2.04 1.86 2.11 1.90 1.58 1.29 0.88 0.82 0.89 0.97 1.14
0.12 0.09 0.09 0.09 0.10 0.13 0.17 0.28 0.45 0.64 0.91 1.25 1.60 1.83 2.06 2.15 2.00 1.98 2.02 2.03 1.98 2.01 2.12 2.14 2.13 2.10 2.04 2.10 2.16 2.20 2.57 2.76 2.46 2.14 1.81 1.61 1.58 1.63 1.32 0.98 0.94 1.03 1.05
0.18 0.15 0.17 0.17 0.20 0.26 0.33 0.49 0.74 1.03 1.31 1.53 1.72 1.93 2.06 2.07 2.05 2.02 2.01 1.94 1.91 1.87 1.91 1.93 2.01 2.04 2.09 2.14 2.30 2.40 2.63 2.65 2.65 2.47 2.29 2.08 1.79 1.45 1.49 1.42 1.17 1.13 1.06
0.22 0.23 0.25 0.31 0.38 0.43 0.56 0.74 0.91 1.20 1.38 1.49 1.61 1.80 1.95 1.99 2.01 2.00 1.99 1.98 1.95 1.86 1.79 1.76 1.82 1.94 2.11 2.17 2.25 2.38 2.61 2.71 2.79 2.72 2.46 2.37 2.21 1.91 1.78 1.54 1.40 1.39 1.20
0.30 0.30 0.39 0.54 0.62 0.66 0.75 0.89 0.96 1.14 1.25 1.30 1.38 1.53 1.60 1.67 1.72 1.71 1.67 1.62 1.57 1.56 1.58 1.66 1.76 1.89 2.01 2.09 2.21 2.35 2.39 2.50 2.73 2.74 2.58 2.38 2.16 2.13 2.02 1.91 1.60 1.43 1.26
0.46 0.56 0.69 0.78 0.85 0.86 0.83 0.84 0.97 1.02 1.00 1.03 1.04 1.16 1.26 1.32 1.39 1.39 1.39 1.42 1.45 1.46 1.39 1.43 1.53 1.77 1.97 2.05 2.14 2.16 2.13 2.18 2.36 2.37 2.43 2.40 2.12 2.06 1.96 1.95 2.02 1.76 1.56
0.71 0.92 1.10 1.20 1.27 1.18 0.99 0.85 0.86 0.85 0.82 0.88 0.92 0.97 1.07 1.12 1.15 1.18 1.14 1.23 1.27 1.25 1.20 1.22 1.26 1.39 1.63 1.88 2.04 1.98 1.90 1.87 2.02 2.09 2.18 2.29 2.30 2.22 2.12 2.09 2.14 2.07 1.82
1.14 1.39 1.62 1.73 1.70 1.51 1.24 0.96 0.80 0.76 0.73 0.75 0.81 0.87 0.92 0.93 0.92 0.96 0.91 0.97 1.06 1.05 1.05 1.06 1.10 1.23 1.34 1.55 1.78 1.88 1.83 1.80 1.85 1.96 2.09 2.22 2.32 2.37 2.18 2.14 2.11 1.96 1.86
1.56 1.71 1.86 1.89 1.63 1.44 1.20 0.93 0.79 0.81 0.81 0.80 0.80 0.81 0.79 0.78 0.77 0.76 0.74 0.76 0.82 0.81 0.85 1.02 1.08 1.15 1.23 1.40 1.66 1.83 1.84 1.77 1.77 1.77 1.85 2.02 2.11 2.33 2.30 2.22 2.11 1.97 1.80
1.31 1.39 1.45 1.40 1.35 1.30 1.12 0.96 0.87 0.88 0.91 0.90 0.88 0.81 0.73 0.70 0.69 0.67 0.60 0.61 0.59 0.58 0.70 0.84 0.89 0.92 0.97 1.15 1.45 1.64 1.68 1.65 1.56 1.55 1.67 1.90 2.07 2.28 2.38 2.34 2.20 2.10 1.96
1.13 1.13 1.14 1.14 1.16 1.14 1.02 1.00 0.97 0.98 0.97 0.95 0.85 0.77 0.70 0.62 0.57 0.50 0.47 0.54 0.55 0.62 0.73 0.83 0.88 0.90 0.95 0.98 1.08 1.24 1.37 1.35 1.30 1.33 1.40 1.46 1.67 1.95 2.14 2.16 2.17 2.21 2.18
0.90 0.90 0.94 0.98 1.05 1.03 1.00 0.94 0.90 0.94 1.04 1.09 0.98 0.87 0.76 0.66 0.61 0.52 0.48 0.47 0.51 0.58 0.66 0.72 0.79 0.87 0.93 0.93 0.94 0.96 1.03 1.05 1.10 1.16 1.21 1.25 1.30 1.53 1.71 1.81 1.99 2.22 2.24
0.59 0.64 0.67 0.67 0.64 0.60 0.64 0.67 0.73 0.84 0.99 1.12 1.10 0.96 0.77 0.64 0.58 0.54 0.47 0.46 0.47 0.49 0.56 0.63 0.67 0.73 0.81 0.90 0.93 0.80 0.76 0.83 0.94 0.97 0.95 0.97 1.04 1.18 1.28 1.36 1.71 2.05 2.23
0.37 0.35 0.35 0.36 0.36 0.32 0.29 0.29 0.37 0.53 0.78 1.03 1.01 0.79 0.62 0.50 0.45 0.46 0.46 0.42 0.41 0.46 0.52 0.51 0.55 0.67 0.70 0.85 0.83 0.65 0.63 0.67 0.77 0.86 0.86 0.76 0.74 0.79 0.87 0.95 1.13 1.41 1.66
0.25 0.25 0.24 0.23 0.22 0.21 0.19 0.21 0.29 0.41 0.58 0.69 0.66 0.56 0.46 0.44 0.47 0.49 0.44 0.43 0.43 0.44 0.46 0.46 0.47 0.53 0.66 0.71 0.57 0.54 0.56 0.63 0.68 0.74 0.80 0.73 0.63 0.70 0.75 0.84 0.92 0.94 1.02
0.16 0.17 0.16 0.16 0.17 0.18 0.21 0.25 0.29 0.35 0.40 0.43 0.44 0.39 0.37 0.39 0.42 0.43 0.43 0.49 0.55 0.52 0.51 0.52 0.51 0.51 0.57 0.56 0.46 0.49 0.51 0.56 0.61 0.69 0.78 0.83 0.76 0.75 0.85 0.85 0.88 0.84 0.80
0.08 0.08 0.07 0.07 0.08 0.08 0.09 0.10 0.12 0.14 0.15 0.15 0.16 0.16 0.17 0.19 0.21 0.23 0.29 0.40 0.47 0.50 0.52 0.56 0.56 0.52 0.49 0.50 0.42 0.44 0.51 0.56 0.60 0.61 0.66 0.74 0.72 0.86 0.94 0.94 1.07 1.04 0.92
0.06 0.05 0.04 0.04 0.05 0.04 0.03 0.03 0.03 0.03 0.03 0.03 0.04 0.06 0.07 0.07 0.09 0.11 0.16 0.22 0.23 0.29 0.38 0.41 0.44 0.48 0.47 0.58 0.46 0.46 0.50 0.59 0.68 0.70 0.67 0.81 0.80 0.87 0.86 0.84 1.07 1.09 0.97
0.06 0.06 0.05 0.05 0.05 0.05 0.04 0.03 0.03 0.03 0.03 0.03 0.03 0.04 0.05 0.05 0.05 0.07 0.09 0.13 0.14 0.19 0.22 0.27 0.33 0.40 0.48 0.58 0.56 0.60 0.61 0.67 0.79 0.77 0.69 0.63 0.74 0.63 0.69 0.74 0.78 1.00 0.99
0.06 0.05 0.04 0.05 0.05 0.05 0.05 0.04 0.04 0.03 0.03 0.04 0.03 0.03 0.04 0.05 0.05 0.05 0.07 0.09 0.11 0.13 0.15 0.17 0.22 0.29 0.36 0.43 0.49 0.51 0.56 0.64 0.73 0.78 0.66 0.63 0.70 0.55 0.53 0.55 0.66 0.80 0.91
0.05 0.05 0.05 0.04 0.05 0.05 0.04 0.04 0.04 0.04 0.04 0.03 0.03 0.03 0.04 0.05 0.05 0.07 0.08 0.08 0.09 0.11 0.13 0.16 0.23 0.30 0.37 0.41 0.38 0.36 0.39 0.47 0.56 0.60 0.63 0.62 0.57 0.52 0.48 0.48 0.55 0.63 0.73
0.05 0.05 0.06 0.05 0.06 0.07 0.06 0.07 0.05 0.04 0.03 0.03 0.02 0.03 0.04 0.04 0.05 0.07 0.08 0.09 0.10 0.11 0.15 0.21 0.27 0.32 0.36 0.39 0.37 0.40 0.43 0.43 0.46 0.46 0.45 0.47 0.50 0.53 0.50 0.47 0.51 0.59 0.70
0.06 0.08 0.09 0.07 0.06 0.08 0.08 0.10 0.10 0.07 0.04 0.03 0.02 0.02 0.03 0.04 0.04 0.05 0.05 0.07 0.07 0.10 0.17 0.24 0.29 0.30 0.30 0.26 0.28 0.39 0.49 0.56 0.62 0.67 0.61 0.61 0.62 0.58 0.53 0.50 0.50 0.55 0.61
0.05 0.05 0.07 0.07 0.05 0.05 0.07 0.08 0.09 0.10 0.09 0.06 0.03 0.03 0.03 0.04 0.05 0.05 0.05 0.06 0.08 0.12 0.15 0.15 0.17 0.18 0.18 0.19 0.22 0.28 0.39 0.48 0.60 0.76 0.79 0.83 0.85 0.79 0.69 0.60 0.51 0.47 0.49